Westminster, MD

1:39 AM EDT on April 25, 2017 (GMT -0400)
Carroll County Regional-Poage

Weather History for KDMW - February, 2014

Change the Weather History Date:

Wednesday, February 26, 2014

  Actual Average (KTHV) Record (KTHV)
Temperature  
Mean Temperature 24 °F -  
Max Temperature 30 °F 0 °F 63 °F (2002)
Min Temperature 17 °F - 8 °F (2003)
Degree Days  
Heating Degree Days 42    
Moisture  
Dew Point 9 °F    
Average Humidity 53    
Maximum Humidity 93    
Minimum Humidity 27    
Precipitation  
Precipitation 0.00 in - - ()
Sea Level Pressure  
Sea Level Pressure 29.89 in    
Wind  
Wind Speed 5 mph (WNW)    
Max Wind Speed 20 mph    
Max Gust Speed 30 mph    
Visibility 10 miles    
Events Snow    
Averages and records for this station are not official NWS values.
T = Trace of Precipitation, MM = Missing Value Source: NWS Daily Summary

Daily Weather History Graph

Daily Weather History Graph

Search for Another Location

Airport or City:

Trip Planner

Search our weather history database for the weather conditions in past years. The results will help you decide how hot, cold, wet, or windy it might be!

Date:

Astronomy

Feb. 26, 2014 Rise Set
Actual Time 6:45 AM EST 5:56 PM EST
Civil Twilight 6:18 AM EST 6:24 PM EST
Nautical Twilight 5:47 AM EST 6:55 PM EST
Astronomical Twilight 5:15 AM EST 7:26 PM EST
Moon 4:29 AM EST (2/26) 3:09 PM EST (2/26)
Length of Visible Light 12h 05m
Length of Day
11h 11m
Waning Crescent, 10% of the Moon is Illuminated
Feb 26
Waning Crescent
Mar 1
New
Mar 8
First Quarter
Mar 16
Full
Mar 23
Last Quarter

Hourly Weather History & Observations

Time (EST) Temp. Windchill Dew Point Humidity Pressure Visibility Wind Dir Wind Speed Gust Speed Precip Events Conditions
12:15 AM 24.8 °F - 12.2 °F 59% 29.98 in 10.0 mi Calm Calm - N/A   Clear
12:35 AM 24.8 °F - 12.2 °F 59% 29.97 in 10.0 mi Calm Calm - N/A   Mostly Cloudy
12:55 AM 24.8 °F - 14.0 °F 64% 29.97 in 10.0 mi Calm Calm - N/A   Overcast
1:15 AM 24.8 °F - 14.0 °F 64% 29.96 in 10.0 mi Calm Calm - N/A   Overcast
1:35 AM 24.8 °F - 14.0 °F 64% - 10.0 mi Calm Calm - N/A   Mostly Cloudy
1:55 AM 24.8 °F - 14.0 °F 64% 29.94 in 10.0 mi Calm Calm - N/A   Scattered Clouds
2:15 AM 24.8 °F - 15.8 °F 69% 29.93 in 10.0 mi Calm Calm - N/A   Scattered Clouds
2:35 AM 24.8 °F - 15.8 °F 69% 29.92 in 10.0 mi Calm Calm - N/A   Mostly Cloudy
2:55 AM 26.6 °F 22.6 °F 15.8 °F 64% 29.92 in 10.0 mi SSW 3.5 mph - N/A   Overcast
3:15 AM 26.6 °F 21.2 °F 15.8 °F 64% 29.90 in 10.0 mi SSW 4.6 mph - N/A   Mostly Cloudy
3:35 AM 26.6 °F - 15.8 °F 64% 29.89 in 10.0 mi Calm Calm - N/A   Mostly Cloudy
3:55 AM 26.6 °F - 15.8 °F 64% 29.89 in 10.0 mi Calm Calm - N/A   Overcast
4:15 AM 26.6 °F - 15.8 °F 64% 29.89 in 10.0 mi Calm Calm - N/A   Overcast
4:35 AM 26.6 °F - 15.8 °F 64% 29.88 in 10.0 mi Calm Calm - N/A   Mostly Cloudy
4:55 AM 26.6 °F - 15.8 °F 64% 29.88 in 10.0 mi Calm Calm - N/A   Overcast
5:15 AM 26.6 °F 17.5 °F 15.8 °F 64% 29.88 in 10.0 mi WSW 9.2 mph - N/A   Overcast
5:35 AM 26.6 °F 17.5 °F 17.6 °F 69% 29.88 in 10.0 mi SW 9.2 mph - N/A   Overcast
5:55 AM 26.6 °F 16.8 °F 19.4 °F 74% 29.88 in 10.0 mi SW 10.4 mph 16.1 mph N/A   Overcast
6:15 AM - - - N/A% 29.88 in 10.0 mi WSW 11.5 mph - N/A   Overcast
6:35 AM 26.6 °F 16.2 °F 21.2 °F 80% 29.88 in 10.0 mi WSW 11.5 mph 18.4 mph N/A   Mostly Cloudy
6:55 AM - - - N/A% 29.88 in 10.0 mi WSW 13.8 mph - N/A   Overcast
7:15 AM 26.6 °F 15.2 °F 19.4 °F 74% 29.88 in 10.0 mi WSW 13.8 mph - N/A   Overcast
7:35 AM - - - N/A% 29.89 in 5.0 mi WSW 12.7 mph 21.9 mph N/A   Unknown
7:55 AM 26.6 °F 17.5 °F 21.2 °F 80% 29.90 in 4.0 mi SW 9.2 mph - N/A Snow Light Snow
8:15 AM 26.6 °F 17.5 °F 23.0 °F 86% 29.92 in 10.0 mi SW 9.2 mph - N/A   Scattered Clouds
8:35 AM 26.6 °F 18.2 °F 24.8 °F 93% 29.93 in 10.0 mi WSW 8.1 mph - N/A   Mostly Cloudy
8:55 AM 26.6 °F 16.2 °F 21.2 °F 80% 29.95 in 1.2 mi WNW 11.5 mph 21.9 mph N/A Snow Light Snow
9:15 AM - - - N/A% 29.96 in 1.8 mi West 12.7 mph 18.4 mph N/A   Unknown
9:35 AM 26.6 °F 18.2 °F 21.2 °F 80% 29.95 in 5.0 mi West 8.1 mph 17.3 mph N/A Snow Light Snow
9:55 AM 26.6 °F 18.2 °F 21.2 °F 80% 29.95 in 10.0 mi NW 8.1 mph - N/A   Mostly Cloudy
10:15 AM 28.4 °F 17.0 °F 19.4 °F 69% 29.95 in 10.0 mi WNW 15.0 mph 21.9 mph N/A   Mostly Cloudy
10:35 AM 28.4 °F 16.2 °F 17.6 °F 64% 29.95 in 10.0 mi WNW 17.3 mph 23.0 mph N/A   Mostly Cloudy
10:55 AM 28.4 °F 16.6 °F 15.8 °F 59% 29.94 in 10.0 mi WNW 16.1 mph 24.2 mph N/A   Scattered Clouds
11:15 AM 28.4 °F 17.0 °F 12.2 °F 51% 29.94 in 10.0 mi WNW 15.0 mph 25.3 mph N/A   Scattered Clouds
11:35 AM 28.4 °F 17.0 °F 12.2 °F 51% 29.94 in 10.0 mi WNW 15.0 mph 23.0 mph N/A   Scattered Clouds
11:55 AM 30.2 °F 19.8 °F 10.4 °F 44% 29.93 in 10.0 mi NW 13.8 mph 21.9 mph N/A   Scattered Clouds
12:15 PM 28.4 °F 18.0 °F 10.4 °F 47% - 10.0 mi NW 12.7 mph 25.3 mph N/A   Scattered Clouds
12:35 PM 28.4 °F 15.8 °F 8.6 °F 43% - 10.0 mi WNW 18.4 mph 26.5 mph N/A   Scattered Clouds
12:55 PM 28.4 °F 18.0 °F 6.8 °F 40% - 10.0 mi NW 12.7 mph 23.0 mph N/A   Scattered Clouds
1:15 PM 28.4 °F 15.4 °F 3.2 °F 34% 29.90 in 10.0 mi NW 19.6 mph 29.9 mph N/A   Scattered Clouds
1:35 PM 28.4 °F 19.7 °F 1.4 °F 31% 29.90 in 10.0 mi NW 9.2 mph 23.0 mph N/A   Scattered Clouds
1:55 PM 28.4 °F 18.5 °F 1.4 °F 31% 29.89 in 10.0 mi WNW 11.5 mph 24.2 mph N/A   Scattered Clouds
2:15 PM 28.4 °F 18.0 °F 3.2 °F 34% 29.88 in 10.0 mi NW 12.7 mph 20.7 mph N/A   Clear
2:35 PM 28.4 °F 17.0 °F -2.2 °F 27% 29.88 in 10.0 mi West 15.0 mph 20.7 mph N/A   Clear
2:55 PM 28.4 °F 19.1 °F 1.4 °F 31% 29.87 in 10.0 mi NNW 10.4 mph 16.1 mph N/A   Clear
3:15 PM 28.4 °F 17.5 °F 1.4 °F 31% 29.87 in 10.0 mi WNW 13.8 mph 24.2 mph N/A   Clear
3:35 PM 28.4 °F 19.1 °F 1.4 °F 31% 29.87 in 10.0 mi NW 10.4 mph - N/A   Clear
3:55 PM 26.6 °F 16.8 °F 1.4 °F 34% 29.86 in 10.0 mi NW 10.4 mph 17.3 mph N/A   Clear
4:15 PM 26.6 °F 20.0 °F 1.4 °F 34% 29.86 in 10.0 mi NNW 5.8 mph - N/A   Clear
4:35 PM 28.4 °F 19.7 °F -0.4 °F 29% 29.85 in 10.0 mi WNW 9.2 mph - N/A   Clear
4:55 PM 26.6 °F 18.2 °F -0.4 °F 31% 29.85 in 10.0 mi NNW 8.1 mph 17.3 mph N/A   Clear
5:15 PM 26.6 °F 21.2 °F -0.4 °F 31% 29.85 in 10.0 mi NNW 4.6 mph - N/A   Clear
5:35 PM 26.6 °F 16.2 °F -0.4 °F 31% 29.84 in 10.0 mi NW 11.5 mph 16.1 mph N/A   Clear
5:55 PM 24.8 °F 19.1 °F - N/A% 29.85 in 10.0 mi NW 4.6 mph - N/A   Clear
6:15 PM 24.8 °F 19.1 °F -0.4 °F 34% 29.85 in 10.0 mi NNW 4.6 mph - N/A   Clear
6:35 PM 24.8 °F - -0.4 °F 34% 29.86 in 10.0 mi Calm Calm - N/A   Clear
6:55 PM 23.0 °F 18.4 °F -0.4 °F 36% 29.86 in 10.0 mi NW 3.5 mph - N/A   Clear
7:15 PM 23.0 °F - 1.4 °F 39% 29.86 in 10.0 mi Calm Calm - N/A   Clear
7:35 PM 21.2 °F - 1.4 °F 42% 29.86 in 10.0 mi Calm Calm - N/A   Clear
7:55 PM 21.2 °F - 1.4 °F 42% 29.85 in 10.0 mi Calm Calm - N/A   Clear
8:15 PM 19.4 °F - 3.2 °F 49% 29.85 in 10.0 mi North - - N/A   Clear
8:35 PM 19.4 °F - 3.2 °F 49% 29.85 in 10.0 mi North - - N/A   Clear
8:55 PM 19.4 °F - 3.2 °F 49% 29.84 in 10.0 mi Calm Calm - N/A   Clear
9:15 PM 19.4 °F - 3.2 °F 49% 29.85 in 10.0 mi Calm Calm - N/A   Clear
9:35 PM 19.4 °F - 1.4 °F 46% 29.85 in 10.0 mi Calm Calm - N/A   Clear
10:20 PM 19.4 °F 14.3 °F 3.2 °F 49% 29.84 in 10.0 mi ENE 3.5 mph - N/A   Clear
10:40 PM 17.6 °F - 3.2 °F 53% 29.84 in 10.0 mi Calm Calm - N/A   Clear
11:00 PM 17.6 °F 12.3 °F 6.8 °F 63% 29.84 in 10.0 mi ESE 3.5 mph - N/A   Scattered Clouds
11:15 PM 17.6 °F - 3.2 °F 53% 29.84 in 10.0 mi Calm Calm - N/A   Scattered Clouds
11:40 PM 19.4 °F - 3.2 °F 49% 29.84 in 10.0 mi Calm Calm - N/A   Scattered Clouds
11:55 PM 17.6 °F - 3.2 °F 53% 29.84 in 10.0 mi Calm Calm - N/A   Scattered Clouds